RH
91 98 82 55 49 50 54 58 65 62 65 69 75 81 81 87 92 83 76 71 65 62 57 54 49 44 41 38 36 35 35 35 38 40 39 39 39 42 40 40 40 39 37 39
97 97 90 70 53 48 52 55 57 64 72 73 79 83 87 87 88 84 77 72 68 65 61 57 53 47 43 39 36 33 32 30 30 33 33 35 37 37 36 35 36 37 37 37
93 96 90 76 67 55 53 53 57 69 75 75 80 86 87 80 81 78 73 67 63 61 59 57 54 51 46 40 38 36 34 33 31 31 30 29 29 28 29 30 31 32 33 33
94 94 92 79 75 63 61 53 56 65 69 79 76 85 73 68 68 69 68 62 58 54 55 53 49 46 45 41 39 38 37 36 33 31 29 28 27 26 26 26 27 28 28 27
92 91 94 90 80 69 63 60 58 64 72 69 69 79 59 58 64 56 56 56 54 52 50 51 49 47 44 42 42 40 38 36 34 33 31 29 28 26 25 24 25 25 25 24
95 94 95 87 83 73 65 68 67 72 73 81 68 70 56 55 48 47 47 52 54 54 52 50 48 49 47 45 43 41 39 36 34 33 32 30 28 27 25 25 24 24 25 25
96 98 96 86 86 76 67 70 84 85 85 79 62 63 43 41 45 44 44 42 44 48 52 52 50 52 50 45 45 44 42 39 37 35 33 30 29 28 29 29 29 30 27 25
98 98 96 85 82 79 71 68 75 73 78 70 55 56 40 33 33 38 41 42 40 42 48 51 54 53 52 48 47 45 42 40 38 36 35 34 33 32 31 30 29 30 29 26
96 95 93 86 81 72 74 76 65 65 63 66 53 42 38 37 35 35 38 39 39 39 45 52 54 53 53 49 46 44 43 43 42 41 40 37 36 35 31 29 29 28 27 26
84 90 85 82 76 72 70 67 73 71 69 67 51 51 46 41 38 38 36 39 38 40 46 51 52 53 54 52 48 46 44 41 41 41 40 39 38 35 33 31 29 29 29 30
77 76 88 85 80 77 74 75 71 68 64 61 56 47 44 44 41 38 37 39 41 44 48 52 54 55 54 54 50 46 43 42 41 41 39 37 36 34 32 31 32 33 33 33
75 76 85 81 77 75 74 71 66 71 68 67 62 54 44 47 45 43 40 42 44 48 52 53 55 54 53 54 53 50 47 45 44 42 42 41 37 35 35 35 35 35 35 34
74 77 83 85 76 75 74 70 69 68 68 70 73 58 46 50 50 50 50 46 49 52 55 59 62 61 58 56 55 54 50 47 44 46 45 42 40 40 39 39 38 36 36 38
67 70 68 72 63 67 74 69 69 74 73 71 60 58 55 57 58 56 55 54 54 55 58 62 63 65 60 57 58 58 57 50 46 46 46 46 47 45 43 41 40 39 38 37
69 75 79 81 79 75 71 67 71 75 70 78 66 62 60 63 64 63 58 58 59 58 59 61 66 67 65 63 63 62 59 55 52 51 49 50 50 50 46 42 41 41 43 43
78 82 81 88 87 85 81 75 77 73 76 75 73 66 66 69 66 67 67 66 63 65 65 62 62 67 68 69 71 68 63 60 58 56 57 56 51 47 46 47 48 48 48 49
69 73 77 78 77 75 73 68 69 72 72 75 80 63 68 68 70 69 72 67 63 66 63 62 62 60 69 72 70 72 69 66 65 64 62 55 51 49 51 54 54 52 53 53
64 68 69 72 66 74 55 58 59 59 59 62 62 58 57 57 68 66 62 56 55 59 61 62 60 66 72 74 73 69 67 66 64 60 58 56 56 57 58 57 55 55 57 57
66 68 75 76 74 56 47 53 56 58 53 51 50 48 46 48 49 51 57 55 52 52 56 59 58 60 71 79 76 71 69 69 70 66 65 62 64 64 63 61 60 60 61 61
71 73 74 77 76 65 50 57 54 55 59 58 57 53 49 49 50 46 48 56 57 56 57 59 60 63 74 78 77 74 70 68 68 67 67 65 65 66 65 63 62 61 60 55
72 73 77 81 83 67 54 51 55 62 55 58 55 52 50 50 46 48 51 55 60 62 58 56 57 71 79 80 79 79 77 73 70 70 68 67 68 67 66 62 62 61 53 40
71 74 77 78 80 79 60 63 62 58 56 56 57 53 52 51 51 53 55 57 61 64 66 70 77 83 86 84 83 80 78 75 73 71 69 70 69 67 63 63 61 45 33 28
73 67 69 68 66 59 62 65 63 60 58 58 60 58 56 60 60 59 61 64 66 69 73 76 79 83 86 90 88 86 83 81 78 75 75 73 70 67 64 60 40 33 31 29
72 70 67 65 61 62 62 64 63 62 61 62 63 67 65 67 68 70 71 71 75 79 80 83 85 86 89 92 90 87 84 81 80 80 78 75 72 70 66 53 38 35 34 33
78 74 70 68 65 64 64 65 65 64 64 65 67 69 71 75 79 79 80 77 79 85 89 90 95 94 91 91 94 92 88 85 80 77 77 76 75 71 65 49 43 40 38 37
81 78 76 70 65 67 68 68 71 71 70 68 70 72 72 73 76 79 79 81 81 82 85 87 92 94 92 92 91 92 92 88 84 76 74 75 76 74 65 53 48 45 43 41